Location: Astronomy Club of Akron Observatory
(40.9700°N, 81.5606°W)
Time: 08:58:49
(UTC-04:00)

ISS - Visible Passes

Search period start: 22 October 2021 00:00
Search period end: 01 November 2021 00:00
Orbit: 417 x 423 km, 51.6° (Epoch: 22 October)

Date Brightness Start Highest point End Pass type
(mag) Time Alt. Az. Time Alt. Az. Time Alt. Az.
22 Oct -0.8 05:37:48 10° SSE 05:39:12 12° SE 05:40:37 10° ESE visible
22 Oct -3.8 07:12:13 10° WSW 07:15:35 77° NW 07:18:57 10° NE visible
23 Oct -3.4 06:26:22 22° SW 06:28:23 63° SE 06:31:43 10° ENE visible
24 Oct -2.2 05:41:42 33° ESE 05:41:42 33° ESE 05:44:20 10° ENE visible
24 Oct -2.8 07:15:00 10° W 07:18:04 31° NNW 07:21:08 10° NE visible
25 Oct -3.4 06:29:51 36° WNW 06:30:43 46° NNW 06:34:00 10° NE visible
26 Oct -2.1 05:44:52 32° NE 05:44:52 32° NE 05:46:49 10° NE visible
26 Oct -1.9 07:18:15 10° WNW 07:20:42 18° NNW 07:23:10 10° NNE visible
27 Oct -2.3 06:32:46 22° NW 06:33:15 23° NNW 06:36:02 10° NE visible
28 Oct -1.5 05:47:35 19° NNE 05:47:35 19° NNE 05:48:54 10° NE visible
28 Oct -1.5 07:21:35 10° NW 07:23:28 14° N 07:25:21 10° NNE visible
29 Oct -1.7 06:35:19 15° NNW 06:35:56 16° N 06:38:04 10° NNE visible
30 Oct -1.1 05:50:00 14° NNE 05:50:00 14° NNE 05:50:51 10° NNE visible
30 Oct -1.4 07:24:25 10° NNW 07:26:15 14° N 07:28:04 10° NE visible
31 Oct -1.4 06:37:39 12° NNW 06:38:40 13° N 06:40:26 10° NNE visible
